ASL234 LYBE-LRTR

Flight info

Callsign ASL234
Flight time N/A
Altitude 19000
Route DONIV N188 MAVIT
Aircraft DH8D/M-SDE2E3FGRY/H

Departure

Time N/A
Airport Belgrade Nikola Tesla Airport (LYBE)

Arrival

Time 2026-04-29 20:27
Airport Timișoara Traian Vuia International Airport (LRTR)
Time Latitude Longitude Altitude Speed Heading
2026-04-29 20:20 45.71960 21.70528 5194 ft 236 kts 292°
2026-04-29 20:21 45.72568 21.67920 4689 ft 225 kts 293°
2026-04-29 20:21 45.73054 21.65872 4280 ft 218 kts 294°
2026-04-29 20:21 45.73543 21.63843 3859 ft 211 kts 294°
2026-04-29 20:21 45.74017 21.61903 3443 ft 205 kts 295°
2026-04-29 20:22 45.74482 21.60038 3148 ft 193 kts 297°
2026-04-29 20:22 45.74952 21.58369 3015 ft 173 kts 292°
2026-04-29 20:22 45.75237 21.56786 2978 ft 158 kts 294°
2026-04-29 20:22 45.75587 21.55361 2978 ft 145 kts 298°
2026-04-29 20:23 45.75880 21.54112 2965 ft 123 kts 298°
2026-04-29 20:23 45.76124 21.53120 2805 ft 121 kts 302°
2026-04-29 20:23 45.76446 21.51973 2745 ft 124 kts 301°
2026-04-29 20:23 45.76729 21.50825 2510 ft 121 kts 299°
2026-04-29 20:24 45.77027 21.49674 2568 ft 127 kts 305°
2026-04-29 20:24 45.77396 21.48367 2718 ft 155 kts 299°
2026-04-29 20:24 45.77714 21.46831 2601 ft 163 kts 294°
2026-04-29 20:24 45.78045 21.45318 2223 ft 159 kts 296°
2026-04-29 20:25 45.78405 21.43859 1902 ft 149 kts 299°
2026-04-29 20:25 45.78781 21.42483 1407 ft 150 kts 301°
2026-04-29 20:25 45.79163 21.41071 1204 ft 152 kts 294°
2026-04-29 20:25 45.79461 21.39660 914 ft 141 kts 292°
2026-04-29 20:26 45.79802 21.38344 780 ft 142 kts 298°
2026-04-29 20:26 45.80158 21.37050 583 ft 142 kts 292°
2026-04-29 20:26 45.80481 21.35754 367 ft 128 kts 293°
2026-04-29 20:26 45.80758 21.34698 347 ft 104 kts 288°
2026-04-29 20:27 45.80983 21.33779 348 ft 91 kts 291°
2026-04-29 20:27 45.81118 21.33244 348 ft 85 kts 289°
2026-04-29 20:27 45.81353 21.32317 345 ft 57 kts 288°
2026-04-29 20:27 45.81443 21.31954 345 ft 33 kts 290°
2026-04-29 20:28 45.81498 21.31727 343 ft 18 kts 273°
2026-04-29 20:28 45.81392 21.31612 342 ft 31 kts 206°
2026-04-29 20:28 45.81245 21.31535 343 ft 10 kts 146°
2026-04-29 20:28 45.81234 21.31538 342 ft 0 kts 118°